Flag for U.S.A. Weather past 2 weeks in Cedar Rapids, Iowa, U.S.A.

Now
74 °F

Light rain. Scattered clouds.


Feels Like: 73 °F
Forecast: 61 / 85 °F
Wind: 5 mph from Southeast

Location: Cedar Rapids Municipal Airport

Current Time: Aug 20, 2014 at 4:11:56 PM

Latest Report: Aug 20, 2014 at 3:52 PM


Visibility: 10 mi

Pressure: 29.85 "Hg

Humidity: 88%

Dew point: 70 °F

Location of Cedar RapidsLocation

Historic Weather in Cedar Rapids — Graph

°F

Cedar Rapids temperature yesterday

Maximum temperature yesterday: 84 °F (at 2:52 PM)
Minimum temperature yesterday: 65 °F (at 11:52 PM)
Average temperature yesterday: 75 °F

Past Weeks' High & Low Weather Summary

 TemperatureHumidityPressure
High84 °F (Aug 19, 2:52 PM)100% (Aug 11, 2:52 AM)30.11 "Hg (Aug 11, 2:52 AM)
Low51 °F (Aug 13, 4:52 AM)37% (Aug 12, 5:52 PM)29.68 "Hg (Aug 19, 4:52 AM)
Average69 °F81%29.96 "Hg
* Reported Aug 5 2:52 PM — Aug 20 2:52 PM, Cedar Rapids, Weather by CustomWeather, © 2014

Note: Actual official high and low records may vary slightly from our data, if they occured in-between our weather recording intervals... More about our weather records

Advertising

Cedar Rapids weather history for previous 24 hours

 ConditionsComfort  
Time TempWeatherWind HumidityBarometerVisibility
2:52 PM
Aug 20
73 °FLight rain. Broken clouds.12 mph88%29.88 "Hg10 mi
1:52 PM74 °FPartly sunny.3 mph82%29.83 "Hg10 mi
12:52 PM74 °FScattered clouds.7 mph82%29.83 "Hg10 mi
11:52 AM72 °FPassing clouds.No wind91%29.90 "Hg10 mi
10:52 AM69 °FPartly sunny.5 mph96%29.92 "Hg7 mi
9:52 AM67 °FPartly sunny.6 mph97%29.91 "Hg8 mi
8:52 AM67 °FScattered clouds.No wind97%29.88 "Hg8 mi
7:52 AM69 °FSunny.No wind90%29.84 "Hg9 mi
6:52 AM62 °FPassing clouds.6 mph100%29.84 "Hg10 mi
5:52 AM61 °FFog.3 mph100%29.81 "Hg5 mi
4:52 AM61 °FFog.No wind97%29.80 "Hg5 mi
3:52 AM61 °FClear.3 mph100%29.80 "Hg8 mi
2:52 AM63 °FClear.5 mph97%29.81 "Hg9 mi
1:52 AM62 °FClear.3 mph96%29.81 "Hg7 mi
12:52 AM63 °FClear.5 mph100%29.81 "Hg8 mi
11:52 PM
Aug 19
65 °FClear.No wind97%29.80 "Hg8 mi
10:52 PM67 °FClear.No wind93%29.80 "Hg9 mi
9:52 PM70 °FClear.5 mph87%29.79 "Hg10 mi
8:52 PM70 °FSunny.No wind87%29.78 "Hg8 mi
7:52 PM75 °FSunny.6 mph74%29.76 "Hg10 mi
6:52 PM80 °FSunny.7 mph62%29.75 "Hg10 mi
5:52 PM82 °FPassing clouds.10 mph55%29.75 "Hg10 mi
4:52 PM82 °FSunny.12 mph56%29.75 "Hg10 mi
Weather by CustomWeather, © 2014

See weather overviewHow to use our weather pages